GAOFEN-12 02

Last updated on Thu Jul 03 2025 00:02:30 GMT+0000 (Coordinated Universal Time)

1 48079U 21026A 25183.59255066 .00000313 00000+0 47859-4 0 9999 2 48079 97.9739 178.4763 0000775 294.7896 65.3235 14.80426617230035
UTC large
Height (km)
Speed (km/s)
/
Latitude / Longitude
Inclination (degrees)
Orbital Period (minutes)
Azimuth
Elevation
Range (km)
Doppler Factor

Next 0 passes for location: London (51.5072 / 0.1276)

Sorry there are no passes over London.